KC0VVH Weather Reports


time (UTC)temp
F
wind
direction
speed
knots
gust
knots
rain 1hr
in
rain 24hr
in
rain mn
in
humidity
%
barometer
mb
20260509111815 59 244 0.0 1.7 0.00 0.00 0.00 29 1017.9
20260509110903 59 244 0.9 6.1 0.00 0.00 0.00 29 1017.9
20260509110015 58 245 1.7 4.3 0.00 0.00 0.00 30 1017.9
20260509105436 57 246 1.7 4.3 0.00 0.00 0.00 31 1017.9
20260509104515 56 0 0.0 0.0 0.00 0.00 0.00 34 1017.9
20260509103615 56 0 0.0 0.0 0.00 0.00 0.00 33 1017.9
20260509102736 58 0 0.0 0.0 0.00 0.00 0.00 31 1017.9
20260509101815 59 0 0.0 0.0 0.00 0.00 0.00 29 1017.9
20260509100915 61 0 0.0 0.0 0.00 0.00 0.00 28 1017.9
20260509100015 63 0 0.0 0.0 0.00 0.00 0.00 26 1017.9
20260509095436 64 246 0.0 3.5 0.00 0.00 0.00 25 1017.9
20260509094515 65 246 0.9 4.3 0.00 0.00 0.00 21 1017.9
20260509093603 65 246 0.9 4.3 0.00 0.00 0.00 21 1017.9
20260509092715 65 246 2.6 6.1 0.00 0.00 0.00 21 1017.9
20260509091815 64 247 1.7 6.1 0.00 0.00 0.00 22 1017.9
20260509090915 62 250 0.0 3.5 0.00 0.00 0.00 24 1017.9
20260509090015 63 0 0.0 0.0 0.00 0.00 0.00 26 1017.9
20260509085403 64 250 0.0 0.9 0.00 0.00 0.00 25 1017.9
20260509084515 66 250 0.0 3.5 0.00 0.00 0.00 22 1017.9
20260509083615 67 250 1.7 4.3 0.00 0.00 0.00 20 1017.9
20260509082715 67 250 0.9 4.3 0.00 0.00 0.00 20 1017.9
20260509081815 68 250 0.9 3.5 0.00 0.00 0.00 19 1017.9
20260509080915 68 250 0.9 6.1 0.00 0.00 0.00 19 1017.9
20260509080004 68 251 0.9 7.0 0.00 0.00 0.00 19 1017.9
20260509075415 68 252 0.9 7.0 0.00 0.00 0.00 19 1017.9
20260509074515 69 256 0.9 3.5 0.00 0.00 0.00 19 1017.9
20260509073603 69 257 0.9 7.0 0.00 0.00 0.00 19 1017.9
20260509072715 69 245 0.9 7.0 0.00 0.00 0.00 19 1017.9
20260509071803 69 253 0.9 7.0 0.00 0.00 0.00 19 1017.9
20260509070903 69 248 0.9 6.1 0.00 0.00 0.00 19 1017.9
20260509070015 69 239 1.7 6.1 0.00 0.00 0.00 20 1017.9
20260509065403 69 237 0.9 3.5 0.00 0.00 0.00 20 1017.9
20260509064536 69 231 0.9 5.2 0.00 0.00 0.00 20 1017.9
20260509063603 70 288 0.9 3.5 0.00 0.00 0.00 19 1017.9
20260509062703 70 281 0.9 7.0 0.00 0.00 0.00 18 1017.9
20260509061815 70 300 0.9 5.2 0.00 0.00 0.00 18 1017.9
20260509060903 70 303 1.7 7.0 0.00 0.00 0.00 18 1017.9
20260509060015 71 301 0.9 6.1 0.00 0.00 0.00 18 1017.9
20260509055403 71 290 1.7 11.3 0.00 0.00 0.00 18 1017.9
20260509054515 70 314 0.9 5.2 0.00 0.00 0.00 19 1017.9
20260509053615 70 300 0.9 4.3 0.00 0.00 0.00 19 1017.9
20260509052715 70 294 0.9 3.5 0.00 0.00 0.00 19 1017.9
20260509051815 71 325 0.9 6.1 0.00 0.00 0.00 19 1017.9
20260509050915 72 329 1.7 7.0 0.00 0.00 0.00 18 1017.9
20260509050003 72 320 0.9 7.0 0.00 0.00 0.00 17 1017.9
20260509045403 73 310 0.9 7.0 0.00 0.00 0.00 17 1017.9
20260509044515 73 305 0.9 7.8 0.00 0.00 0.00 17 1017.9
20260509043615 74 263 0.9 5.2 0.00 0.00 0.00 17 1017.9
20260509042715 74 296 1.7 8.7 0.00 0.00 0.00 17 1017.9
20260509041815 73 296 1.7 8.7 0.00 0.00 0.00 17 1017.9
20260509040903 74 353 0.9 7.0 0.00 0.00 0.00 18 1017.9
20260509040036 75 262 1.7 9.6 0.00 0.00 0.00 15 1017.9
20260509035415 75 247 2.6 9.6 0.00 0.00 0.00 14 1017.9
20260509034515 76 268 0.9 8.7 0.00 0.00 0.00 14 1017.9
20260509033603 76 247 0.9 13.0 0.00 0.00 0.00 14 1017.9
20260509032715 76 240 1.7 13.0 0.00 0.00 0.00 14 1017.9
20260509031815 76 241 0.9 5.2 0.00 0.00 0.00 14 1017.9
20260509030903 76 232 0.9 7.0 0.00 0.00 0.00 14 1017.9
20260509030015 77 231 2.6 13.9 0.00 0.00 0.00 14 1017.9
20260509025403 76 224 0.9 7.8 0.00 0.00 0.00 14 1017.9
20260509024516 76 216 0.9 5.2 0.00 0.00 0.00 14 1017.9
20260509023636 77 222 0.9 5.2 0.00 0.00 0.00 14 1017.9
20260509022715 77 218 1.7 8.7 0.00 0.00 0.00 14 1017.9
20260509021803 77 222 2.6 9.6 0.00 0.00 0.00 14 1017.9
20260509020915 78 228 1.7 8.7 0.00 0.00 0.00 13 1017.9
20260509020015 78 238 0.9 7.0 0.00 0.00 0.00 13 1017.9
20260509015415 78 0 0.0 0.0 0.00 0.00 0.00 14 1017.9
20260509014515 78 225 0.9 4.3 0.00 0.00 0.00 13 1017.9
20260509013615 79 197 0.9 6.1 0.00 0.00 0.00 13 1017.9
20260509012703 79 0 0.0 0.0 0.00 0.00 0.00 13 1017.9
20260509011815 79 0 0.0 0.9 0.00 0.00 0.00 13 1017.9
20260509010903 80 0 0.0 0.0 0.00 0.00 0.00 12 1017.9
20260509010024 80 296 0.9 7.8 0.00 0.00 0.00 12 1017.9
20260509005403 80 294 0.9 7.8 0.00 0.00 0.00 12 1017.9
20260509004503 81 266 0.9 6.1 0.00 0.00 0.00 13 1017.9
20260509003615 81 227 1.7 9.6 0.00 0.00 0.00 13 1017.9
20260509002715 82 227 0.0 7.0 0.00 0.00 0.00 12 1017.9
20260509001815 82 224 2.6 19.1 0.00 0.00 0.00 13 1017.9
20260509000936 82 247 1.7 10.4 0.00 0.00 0.00 12 1017.9
20260509000015 84 359 0.9 7.0 0.00 0.00 0.00 11 1017.9
20260508235415 84 47 0.0 3.5 0.00 0.00 0.00 12 1017.9
20260508234515 84 35 0.9 4.3 0.00 0.00 0.00 12 1017.9
20260508233615 84 15 2.6 9.6 0.00 0.00 0.00 11 1017.9
20260508232715 84 11 0.9 7.8 0.00 0.00 0.00 12 1017.9
20260508231836 85 14 1.7 7.8 0.00 0.00 0.00 11 1017.9
20260508230915 85 16 2.6 8.7 0.00 0.00 0.00 11 1017.9
20260508230015 85 326 0.9 5.2 0.00 0.00 0.00 11 1017.9
20260508225415 85 8 0.9 5.2 0.00 0.00 0.00 10 1017.9
20260508224536 85 348 0.9 5.2 0.00 0.00 0.00 11 1017.9
20260508223615 84 354 0.9 7.0 0.00 0.00 0.00 11 1017.9
20260508222703 84 305 1.7 9.6 0.00 0.00 0.00 11 1017.9
20260508221815 84 271 0.9 7.0 0.00 0.00 0.00 11 1017.9
20260508220915 83 326 1.7 10.4 0.00 0.00 0.00 11 1017.9
20260508220015 83 346 4.3 12.2 0.00 0.00 0.00 11 1017.9
20260508215424 82 357 5.2 12.2 0.00 0.00 0.00 12 1017.9
20260508214515 80 354 2.6 11.3 0.00 0.00 0.00 13 1017.9
20260508213615 79 346 0.9 6.1 0.00 0.00 0.00 13 1017.9
20260508212715 78 279 0.9 8.7 0.00 0.00 0.00 13 1017.9
20260508211815 78 309 1.7 8.7 0.00 0.00 0.00 13 1017.9
20260508210915 79 331 2.6 10.4 0.00 0.00 0.00 13 1017.9
20260508210015 80 287 1.7 7.8 0.00 0.00 0.00 13 1017.9
20260508205415 81 308 2.6 7.8 0.00 0.00 0.00 13 1017.9
20260508204503 82 360 3.5 9.6 0.00 0.00 0.00 12 1017.9
20260508203636 83 10 3.5 12.2 0.00 0.00 0.00 12 1017.9
20260508202715 82 333 2.6 12.2 0.00 0.00 0.00 12 1017.9
20260508201815 82 24 4.3 11.3 0.00 0.00 0.00 15 1017.9
20260508200936 82 35 4.3 11.3 0.00 0.00 0.00 14 1017.9
20260508200036 81 20 4.3 10.4 0.00 0.00 0.00 15 1017.9
20260508195403 81 11 4.3 11.3 0.00 0.00 0.00 15 1017.9
20260508194515 80 8 3.5 12.2 0.00 0.00 0.00 15 1017.9
20260508193615 80 54 3.5 8.7 0.00 0.00 0.00 17 1017.9
20260508192715 81 19 3.5 9.6 0.00 0.00 0.00 16 1017.9
20260508191815 80 9 3.5 10.4 0.00 0.00 0.00 17 1017.9
20260508190936 79 32 4.3 10.4 0.00 0.00 0.00 18 1017.9
20260508190015 78 18 1.7 7.0 0.00 0.00 0.00 20 1017.9
20260508185415 78 12 2.6 7.0 0.00 0.00 0.00 20 1017.9
20260508184515 78 51 2.6 5.2 0.00 0.00 0.00 22 1017.9
20260508183615 76 54 2.6 5.2 0.00 0.00 0.00 23 1017.9
20260508182736 75 39 1.7 5.2 0.00 0.00 0.00 23 1017.9
20260508181815 76 13 2.6 7.8 0.00 0.00 0.00 21 1017.9
20260508180915 77 31 3.5 7.8 0.00 0.00 0.00 22 1017.9
20260508180036 76 18 2.6 7.0 0.00 0.00 0.00 22 1017.9
20260508175415 75 29 2.6 7.0 0.00 0.00 0.00 22 1017.9
20260508174515 74 37 1.7 7.0 0.00 0.00 0.00 21 1017.9
20260508173615 74 39 1.7 7.0 0.00 0.00 0.00 21 1017.9
20260508172715 74 61 1.7 7.0 0.00 0.00 0.00 22 1017.9
20260508171815 74 61 2.6 7.8 0.00 0.00 0.00 22 1017.9
20260508170915 73 63 2.6 7.8 0.00 0.00 0.00 22 1017.9
20260508170015 73 66 1.7 7.0 0.00 0.00 0.00 21 1017.9
20260508165415 72 69 0.9 7.0 0.00 0.00 0.00 24 1017.9
20260508164515 71 71 1.7 5.2 0.00 0.00 0.00 23 1017.9
20260508163603 71 71 0.9 5.2 0.00 0.00 0.00 26 1017.9
20260508162703 70 71 0.9 5.2 0.00 0.00 0.00 27 1017.9
20260508161815 69 71 0.0 3.5 0.00 0.00 0.00 28 1017.9
20260508160915 68 69 0.9 4.3 0.00 0.00 0.00 28 1017.9
20260508160015 67 68 0.9 3.5 0.00 0.00 0.00 29 1017.9
20260508155415 67 68 0.9 3.5 0.00 0.00 0.00 30 1017.9
20260508154515 66 68 1.7 4.3 0.00 0.00 0.00 30 1017.9
20260508153636 65 70 2.6 7.0 0.00 0.00 0.00 31 1017.9
20260508152715 64 72 1.7 6.1 0.00 0.00 0.00 31 1017.9
20260508151815 63 118 0.9 7.0 0.00 0.00 0.00 32 1017.9
20260508150915 63 105 1.7 5.2 0.00 0.00 0.00 32 1017.9
20260508150003 63 66 3.5 9.6 0.00 0.00 0.00 33 1017.9
20260508145403 63 62 1.7 5.2 0.00 0.00 0.00 34 1017.9
20260508144536 62 48 3.5 8.7 0.00 0.00 0.00 34 1017.9
20260508143603 62 50 3.5 7.8 0.00 0.00 0.00 35 1017.9
20260508142715 61 49 1.7 7.8 0.00 0.00 0.00 36 1017.9
20260508141803 59 180 0.0 5.2 0.00 0.00 0.00 38 1017.9
20260508140915 58 60 0.0 2.6 0.00 0.00 0.00 39 1017.9
20260508140015 58 60 1.7 4.3 0.00 0.00 0.00 43 1017.9
20260508135415 57 60 1.7 4.3 0.00 0.00 0.00 43 1017.9
20260508134515 57 48 2.6 6.1 0.00 0.00 0.00 41 1017.9
20260508133615 58 292 0.0 2.6 0.00 0.00 0.00 40 1017.9
20260508132715 57 0 0.0 0.0 0.00 0.00 0.00 42 1017.9
20260508131815 56 0 0.0 0.0 0.00 0.00 0.00 43 1017.9
20260508130903 54 0 0.0 0.0 0.00 0.00 0.00 45 1017.9
20260508130015 53 0 0.0 0.0 0.00 0.00 0.00 44 1017.9
20260508125424 52 0 0.0 0.0 0.00 0.00 0.00 44 1017.9
20260508124503 50 284 0.0 1.7 0.00 0.00 0.00 45 1017.9
20260508123603 49 0 0.0 0.0 0.00 0.00 0.00 47 1017.9
20260508122715 47 0 0.0 0.0 0.00 0.00 0.00 49 1017.9
20260508121815 48 0 0.0 0.0 0.00 0.00 0.00 50 1017.9
20260508120903 48 284 0.0 1.7 0.00 0.00 0.00 49 1017.9
20260508120036 47 0 0.0 0.0 0.00 0.00 0.00 52 1017.9
20260508115403 47 0 0.0 0.0 0.00 0.00 0.00 56 1017.9
20260508114515 47 0 0.0 0.0 0.00 0.00 0.00 57 1017.9
20260508113603 48 0 0.0 0.0 0.00 0.00 0.00 56 1017.9
20260508112703 48 0 0.0 0.0 0.00 0.00 0.00 56 1017.9